TimeEST,TemperatureF,Dew PointF,Humidity,Sea Level PressureIn,VisibilityMPH,Wind Direction,Wind SpeedMPH,Gust SpeedMPH,PrecipitationIn,Events,Conditions,WindDirDegrees,DateUTC
12:15 AM,30.2,24.8,80,29.94,10.0,Calm,Calm,-,N/A,,Clear,0,2013-02-13 05:15:00
12:35 AM,28.4,24.8,86,29.93,10.0,Calm,Calm,-,N/A,,Clear,0,2013-02-13 05:35:00
12:55 AM,26.6,24.8,93,29.94,10.0,Calm,Calm,-,N/A,,Clear,0,2013-02-13 05:55:00
1:15 AM,26.6,24.8,93,29.95,10.0,Calm,Calm,-,N/A,,Clear,0,2013-02-13 06:15:00
1:35 AM,24.8,23.0,93,29.96,10.0,Calm,Calm,-,N/A,,Clear,0,2013-02-13 06:35:00
1:55 AM,24.8,23.0,93,29.96,10.0,West,3.5,-,N/A,,Clear,270,2013-02-13 06:55:00
2:15 AM,24.8,23.0,93,29.95,10.0,Calm,Calm,-,N/A,,Clear,0,2013-02-13 07:15:00
2:35 AM,24.8,24.8,100,29.95,10.0,Calm,Calm,-,N/A,,Clear,0,2013-02-13 07:35:00
2:55 AM,24.8,23.0,93,29.95,10.0,Calm,Calm,-,N/A,,Clear,0,2013-02-13 07:55:00
3:15 AM,23.0,23.0,100,29.94,10.0,Calm,Calm,-,N/A,,Clear,0,2013-02-13 08:15:00
3:35 AM,23.0,23.0,100,29.94,10.0,Calm,Calm,-,N/A,,Clear,0,2013-02-13 08:35:00
3:55 AM,23.0,23.0,100,29.92,10.0,Calm,Calm,-,N/A,,Clear,0,2013-02-13 08:55:00
4:15 AM,23.0,23.0,100,29.92,10.0,Calm,Calm,-,N/A,,Clear,0,2013-02-13 09:15:00
4:35 AM,23.0,23.0,100,29.91,10.0,Calm,Calm,-,N/A,,Clear,0,2013-02-13 09:35:00
4:55 AM,21.2,21.2,100,29.91,10.0,Calm,Calm,-,N/A,,Clear,0,2013-02-13 09:55:00
5:15 AM,21.2,21.2,100,29.91,10.0,Calm,Calm,-,N/A,,Clear,0,2013-02-13 10:15:00
5:35 AM,21.2,21.2,100,29.91,10.0,Calm,Calm,-,N/A,,Clear,0,2013-02-13 10:35:00
6:45 AM,19.4,17.6,93,29.92,10.0,Calm,Calm,-,N/A,,Clear,0,2013-02-13 11:45:00
7:45 AM,23.0,23.0,100,29.95,10.0,Calm,Calm,-,N/A,,Clear,0,2013-02-13 12:45:00
9:45 AM,35.6,24.8,65,29.89,10.0,Calm,Calm,-,N/A,,Partly Cloudy,0,2013-02-13 14:45:00
10:50 AM,37.4,23.0,56,29.90,10.0,SSE,4.6,-,N/A,,Mostly Cloudy,150,2013-02-13 15:50:00
11:45 AM,39.2,21.2,49,29.88,10.0,Calm,Calm,-,N/A,,Mostly Cloudy,0,2013-02-13 16:45:00
12:45 PM,41.0,21.2,45,29.83,10.0,Calm,Calm,-,N/A,,Mostly Cloudy,0,2013-02-13 17:45:00
1:45 PM,41.0,21.2,45,29.79,10.0,Calm,Calm,-,N/A,,Clear,0,2013-02-13 18:45:00
2:45 PM,41.0,23.0,49,29.77,10.0,Calm,Calm,-,N/A,,Mostly Cloudy,0,2013-02-13 19:45:00
3:45 PM,41.0,23.0,49,29.75,10.0,SE,3.5,-,N/A,,Overcast,130,2013-02-13 20:45:00
4:45 PM,41.0,23.0,49,29.73,10.0,Calm,Calm,-,N/A,,Overcast,0,2013-02-13 21:45:00
5:45 PM,39.2,24.8,56,29.71,8.0,Calm,Calm,-,N/A,,Overcast,0,2013-02-13 22:45:00
6:45 PM,37.4,28.4,70,29.72,10.0,Calm,Calm,-,N/A,,Overcast,0,2013-02-13 23:45:00
7:45 PM,37.4,28.4,70,29.70,10.0,Calm,Calm,-,N/A,,Overcast,0,2013-02-14 00:45:00
8:45 PM,35.6,28.4,75,29.72,7.0,North,9.2,-,N/A,,Overcast,360,2013-02-14 01:45:00
9:22 PM,33.8,32.0,93,29.72,2.0,NNE,4.6,-,N/A,Rain,Light Rain,20,2013-02-14 02:22:00
9:45 PM,33.8,32.0,93,29.72,4.0,Calm,Calm,-,N/A,Snow,Light Snow,0,2013-02-14 02:45:00
9:55 PM,33.8,33.8,100,29.72,4.0,North,3.5,-,N/A,Snow,Light Snow,350,2013-02-14 02:55:00
10:15 PM,33.8,33.8,100,29.71,4.0,North,3.5,-,N/A,,Overcast,10,2013-02-14 03:15:00
10:35 PM,32.0,32.0,100,29.71,1.8,Calm,Calm,-,N/A,Snow,Light Snow,0,2013-02-14 03:35:00
10:55 PM,32.0,32.0,100,29.71,1.5,Calm,Calm,-,N/A,Snow,Light Snow,0,2013-02-14 03:55:00
11:15 PM,32.0,32.0,100,29.71,1.2,Calm,Calm,-,N/A,Snow,Light Snow,0,2013-02-14 04:15:00
11:35 PM,32.0,32.0,100,29.72,2.0,Calm,Calm,-,N/A,Snow,Light Snow,0,2013-02-14 04:35:00
11:55 PM,32.0,32.0,100,29.72,2.5,Calm,Calm,-,N/A,Snow,Light Snow,0,2013-02-14 04:55:00